www.pogodaiklimat.ru

Погода и климат >> Архив погоды >> Хорватия >> Dubrovnik-Cilipi


ПОГОДА в Dubrovnik-Cilipi

  • Прогноз погоды в Dubrovnik-Cilipi
  • Монитор погоды в Dubrovnik-Cilipi
  • Климат города

АРХИВ ПОГОДЫ в Dubrovnik-Cilipi

Время (UTC), дата Ветер
(напр.,м/с)
 
Видим.   Явления Облачность Т
(С)
Тd
(С)
f
(%)
Тe
(С)
Тes
(С)
Комфортность P
(гПа)
Po
(гПа)
Тmin
(С)
Tmax
(С)
R
(мм)
R24
(мм)
S
(см)
06 15.05 ЮЗ 2 30 км {дождь} 3/1 600 м
[Cu med, cong Ac trans]
+17.9 +11.7 67 +18 +22 1013.2 994.8 +15.7 0.0
09 15.05 Ю 5 30 км 5/4 600 м
[Cu med, cong Ac trans]
+18.8 +12.4 66 +19 +24 1014.0 995.6
12 15.05 Ю 4 30 км 8/6 840 м
[Cu Sc Ac As]
+18.4 +10.6 60 +19 +22 1014.7 996.3
15 15.05 ЮВ 6 20 км слабый дождь 9/5 600 м
[Sc Ac As]
+17.4 +11.3 67 +17 +17 1013.9 995.4
18 15.05 В 3 25 км {дождь} 10/3 1500 м
[Sc Ac As]
+15.2 +7.4 60 +15 +15 1011.6 993.0 +19.7 0.0
21 15.05 В 2 25 км в посл. час дождь 9/0
[Ac As]
+12.3 +11.2 93 +11 +11 1013.8 995.0
00 16.05 В 3 20 км в посл. час дождь 8/4 1000 м
[Cu Sc Ac As]
+12.6 +10.3 86 +11 +11 1014.0 995.2 4
03 16.05 В 4 25 км {дождь} 6/3 600 м
[Cu med, cong Ac As]
+11.4 +10.3 93 +9 +9 1014.8 995.9
06 16.05 В 4 25 км {дождь} 6/6 600 м
[Cu med, cong]
+14.1 +11.3 83 +13 +14 1016.0 997.3 +11.1 13
09 16.05 ЮВ 6 30 км 6/3 1000 м
[Cu med, cong Ac As]
+17.1 +9.8 62 +16 +19 1016.8 998.2
12 16.05 Ю 6 30 км 3/3 600 м
[Cu med, cong]
+18.5 +10.6 60 +18 +23 1016.8 998.3
15 16.05 ЮВ 5 30 км 1/1 1000 м
[Cu hum]
+17.8 +9.6 59 +17 +20 1016.2 997.7
18 16.05 Ю 1 30 км ясно +16.2 +9.4 64 +17 +17 1015.7 997.1 +19.1
21 16.05 В 4 30 км ясно +12.9 +9.6 80 +11 +11 1016.6 997.8
00 17.05 В 4 30 км 6/0
[Ac trans]
+13.1 +9.7 80 +11 +11 1016.5 997.7
03 17.05 В 3 20 км 8/0
[Ac As]
+14.1 +7.9 66 +13 +13 1016.0 997.2
06 17.05 СВ 2 50 км 9/5 2000 м
[Sc Ac As]
+15.9 +8.7 62 +16 +17 1016.6 998.0 +11.8
09 17.05 ЮВ 2 50 км 8/3 2000 м
[Sc Ac trans Cs]
+18.4 +10.4 60 +19 +27 1017.1 998.6
12 17.05 Ю 4 50 км 1/1 1200 м
[Cu med, cong]
+19.8 +12.0 61 +21 +32 комфорт 1016.9 998.5
15 17.05 Ю 3 45 км 1/1 1050 м
[Cu hum]
+19.4 +11.7 61 +21 +26 комфорт 1016.3 997.9
18 17.05 СЗ 2 30 км ясно +17.4 +11.9 70 +18 +18 1016.2 997.7 +20.4
21 17.05 С 1 30 км ясно +14.9 +11.4 80 +15 +15 1016.8 998.1
00 18.05 В 2 30 км ясно +13.8 +9.0 73 +13 +13 1016.5 997.7
03 18.05 В 3 30 км ясно +12.3 +8.1 76 +11 +11 1016.2 997.3
06 18.05 СВ 2 30 км 1/0
[Cs]
+19.4 +8.3 49 +21 +25 комфорт 1016.1 997.7 +11.6
09 18.05 Ю 2 30 км 8/0
[Cs]
+20.5 +10.2 52 +23 +36 комфорт 1015.9 997.6
12 18.05 ЮЗ 3 30 км 9/1 1000 м
[Cu med, cong Cs]
+20.9 +10.8 52 +23 +34 комфорт 1016.0 997.7
15 18.05 З 3 30 км 5/1 1000 м
[Cu med, cong Cs]
+21.2 +9.1 46 +22 +27 комфорт 1015.0 996.7
18 18.05 З 2 50 км ясно +18.2 +11.9 67 +19 +19 1015.0 996.6 +22.3
21 18.05 С 2 40 км ясно +14.1 +9.9 76 +14 +14 1015.3 996.6
00 19.05 С 6 30 км н/о +18.2 +8.3 52 +18 +18 1013.0 994.6
03 19.05 СВ 10 50 км ясно +17.0 +8.1 56 +15 +15 1012.3 993.8
06 19.05 С 7 30 км ясно +19.4 +8.1 48 +20 +21 1012.8 994.4 +13.8
09 19.05 ЮЗ 4 30 км 1/1 1000 м
[Cu med, cong]
+22.9 +8.1 39 +24 +34 комфорт 1013.3 995.1
12 19.05 З 5 30 км 1/1 1000 м
[Cu med, cong]
+23.3 +11.1 46 +26 +34 жарко 1013.1 995.0
15 19.05 З 5 30 км 1/1 600 м
[Cu med, cong]
+22.6 +15.9 66 +27 +30 душно 1012.6 994.5
18 19.05 СЗ 2 30 км ясно +20.7 +16.4 76 +25 +25 комфорт 1012.3 994.1 +24.1
21 19.05 В 4 30 км ясно +19.6 +14.0 70 +21 +21 комфорт 1013.1 994.8
00 20.05 СВ 5 30 км ясно +20.9 +8.1 44 +22 +22 комфорт 1013.3 995.0
03 20.05 С 7 30 км ясно +20.3 +6.7 41 +21 +21 комфорт 1013.7 995.4
06 20.05 С 6 30 км ясно +21.7 +7.9 41 +23 +25 комфорт 1014.1 995.9 +17.4
09 20.05 Ю 3 30 км 8/0
[Cs]
+23.7 +14.1 55 +26 +38 жарко 1013.9 995.8
12 20.05 З 4 30 км 5/1 1500 м
[Cu med, cong Ci fib]
+24.6 +11.7 44 +26 +36 жарко 1013.5 995.5
15 20.05 СЗ 4 30 км 1/1 1500 м
[Cu med, cong]
+24.3 +11.4 44 +26 +30 жарко 1012.2 994.2
18 20.05 З 4 30 км 1/1 1000 м
[Cu med, cong]
+20.3 +15.4 73 +23 +23 комфорт 1012.1 993.9 +25.5
21 20.05 СВ 7 30 км 6/0
[Ac trans]
+23.2 +9.7 42 +25 +25 комфорт 1012.2 994.1
00 21.05 В 5 30 км н/о +20.6 +11.3 55 +22 +22 комфорт 1013.8 995.5
03 21.05 С 4 30 км 1/0
[Ac trans]
+19.9 +12.0 60 +22 +22 комфорт 1013.5 995.2
06 21.05 С 2 30 км ясно +22.4 +11.6 50 +25 +29 комфорт 1013.3 995.1 +17.6
09 21.05 СЗ 4 30 км 1/1 1500 м
[Cu med, cong]
+24.4 +15.2 56 +27 +37 жарко 1013.1 995.1
12 21.05 СЗ 4 30 км 1/1 1500 м
[Cu med, cong]
+25.6 +14.9 52 +28 +39 жарко 1012.3 994.4
15 21.05 СЗ 4 30 км 4/1 1500 м
[Cu med, cong Ci fib]
+24.7 +11.1 42 +26 +30 жарко 1011.7 993.7
18 21.05 З 4 30 км ясно +21.2 +13.3 61 +24 +24 комфорт 1012.2 994.0 +25.7
21 21.05 С 1 40 км ясно +20.2 +12.2 60 +23 +23 комфорт 1012.7 994.4
00 22.05 В 5 40 км ясно +19.2 +14.0 72 +20 +20 1013.2 994.9

 

Местоположение метеостанции Dubrovnik-Cilipi (Хорватия): широта 42.57 долгота 18.27 высота над уровнем моря 165 м.

В архиве по умолчанию представлена погода в Dubrovnik-Cilipi за последнюю неделю. Архивные данные за месяц целиком и за предыдущие месяцы, начиная с января 2011 года, Вы можете получить, выбрав интересующий диапазон дат из раскрывающегося списка и нажав кнопку "Ввод!".


*Определитесь, кто Вы:
робот инопланетянин человек

Внимание! Время в таблицах - всемирное. Для получения местного времени необходимо прибавить поправку, которая в Dubrovnik-Cilipi равна 1 ч.

Смотрите также архив погоды в соседних городах и на ближайших метеорологических станциях:

Погода в Dubrovnik-Gorica (Хорватия) (18 км)
Погода в Tivat (Черногория) (42 км)
Погода в Niksic (Черногория) (60 км)
Погода в Neum (Босния и Герцеговина) (67 км)
Погода в Podgorica (Черногория) (83 км)
Погода в Podgorica-Grad (Черногория) (84 км)
Погода в Ploce (Хорватия) (86 км)
Погода в Bar (Черногория) (86 км)
Погода в Mostar (Босния и Герцеговина) (95 км)
Погода в Lastovo (Хорватия) (114 км)

Пояснения к столбцам:

Ветер - указаны скорость ветра в м/с - средняя за 10 мин, порывы в срок и между сроками (в фигурных скобках) и направление, откуда дует ветер: С - северный, СВ - северо-восточный, В - восточный, ЮВ - юго-восточный, Ю - южный, ЮЗ - юго-западный, З - западный, СЗ - северо-западный.
Видимость - горизонтальная дальность видимости в метрах или километрах. При видимости от 1 до 10 км при отсутствии осадков обычно наблюдается дымка, при ухудшении видимости до 1 км и менее - туман. В сухую погоду видимость может ухудшаться дымом, пылью или мглою.
Явления - указаны атмосферные явления, наблюдавшиеся в срок или в последний час перед сроком; фигурными скобками обозначены явления, наблюдавшиеся между сроками (за 1-3 часа до срока); квадратными скобками обозначены град или гололедные отложения с указанием их диаметра в мм.
Облачность - указаны через наклонную черту общая и нижняя облачность в баллах и высота нижней границы облаков в метрах; квадратными скобками обозначены формы облаков: Ci - перистые, Cs - перисто-слоистые, Cc - перисто-кучевые, Ac - высококучевые, As - высокослоистые, Sc - слоисто-кучевые, Ns - слоисто-дождевые, Cu - кучевые, Cb - кучево-дождевые. Подробнее классификацию облаков см. в Атласе облаков (PDF).
T - Температура воздуха - температура, измеренная на высоте 2 м над землей.
Td - Температура точки росы - температура, при понижении до которой содержащийся в воздухе водяной пар достигнет насыщения.
f - Относительная влажность воздуха - влажноcть воздуха, измеренная на высоте 2 м над землей.
Te - Эффективная температура - температура, которую ощущает одетый по сезону человек в тени. Характеристика душности погоды. При расчете учитывается влияние влажности воздуха и скорости ветра на теплоощущения человека.
Tes - Эффективная температура на солнце - температура, которую ощущает человек, с поправкой на солнечный нагрев. Характеристика знойности погоды. Зависит от высоты солнца над горизонтом, облачности и скорости ветра. Ночью, в пасмурную погоду, а также при ветре 12 м/с и более поправка равна нулю.
P - Атмосферное давление - приведенное к уровню моря атмосферное давление.
Po - Атмосферное давление - измеренное на уровне метеостанции атмосферное давление.
Tmin - Минимальная температура - минимум температуры воздуха на высоте 2 м над землей.
Tmax - Максимальная температура - максимум температуры воздуха на высоте 2 м над землей.
R - Количество осадков - Количество выпавших осадков за период времени, мм. При наведении курсора мыши на число - период времени, за который выпало указанное количество осадков.
R24 - Количество осадков - Количество выпавших осадков за 24 часа, мм.
S - Снежный покров - Высота снежного покрова, см. При наведении курсора мыши на число - состояние снежного покрова и степень покрытия местности в баллах.